sat.trackr.live / text

‹ back to catalog

STARLINK-33915

NORAD 63708 · 2025-087M

PAYLOAD ACTIVE UNKNOWN

§ Identity

Operator
Country
US
Launch date
2025-04-28
Launch site
AFWTR
Launch vehicle
Mass (kg)
RCS (m²)

Purposes: comms

External: N2YO · Heavens-Above · Gunter

§ Orbital elements

Epoch: 2026-09-20T19:46:00.557184Z

Period
93.85 min
Inclination
53.1609°
Eccentricity
0.0001739
Mean motion
15.34409127 rev/d
Perigee alt
461.5 km
Apogee alt
463.9 km
Semi-major
6,840.8 km
B*
4.7352e-4
RAAN
31.8973°
Arg perigee
70.6246°
Mean anomaly
289.4945°
Rev number
7,909

§ Raw data

STARLINK-339151 63708U 25087M   26263.82361756  .00015660  00000+0  47352-3 0  99942 63708  53.1609  31.8973 0001739  70.6246 289.4945 15.34409127 79098

JSON: /api/v1/satellites/63708 · /tle

For live sub-satellite position, see the globe view (requires WebGL).

§ Visibility from observer

Set your observer location to see the next 7 days of passes ≥ 10°. The values pass through the URL so the page stays shareable.

No JS? Fill the form by hand. The geolocation button needs JavaScript.